Location: Newark
(46.5669°N, 0.8644°E)
Time: 10:36:48
(UTC+00:00)

ISS - Visible Passes

Search period start: 22 January 2020 00:00
Search period end: 01 February 2020 00:00
Orbit: 415 x 421 km, 51.6° (Epoch: 22 January)

Date Brightness Start Highest point End Pass type
(mag) Time Alt. Az. Time Alt. Az. Time Alt. Az.
22 Jan -1.6 17:23:48 10° S 17:25:50 15° SE 17:27:51 10° E visible
22 Jan -2.7 18:58:48 10° WSW 19:01:15 45° WSW 19:01:15 45° WSW visible
23 Jan -3.5 18:10:55 10° SW 18:14:13 56° SSE 18:15:23 34° E visible
23 Jan -0.4 19:47:52 10° W 19:48:20 13° W 19:48:20 13° W visible
24 Jan -2.8 17:23:11 10° SSW 17:26:18 35° SE 17:29:25 10° ENE visible
24 Jan -2.7 18:59:42 10° W 19:02:24 44° WNW 19:02:24 44° WNW visible
25 Jan -3.6 18:11:35 10° WSW 18:14:57 69° NNW 18:16:26 30° NE visible
25 Jan -0.4 19:48:58 10° WNW 19:49:22 12° WNW 19:49:22 12° WNW visible
26 Jan -3.7 17:23:32 10° WSW 17:26:55 83° SSE 17:30:17 10° ENE visible
26 Jan -2.4 19:00:46 10° WNW 19:03:21 33° NNW 19:03:21 33° NNW visible
27 Jan -2.9 18:12:33 10° W 18:15:47 42° NNW 18:17:17 25° NE visible
27 Jan -0.4 19:49:55 10° WNW 19:50:13 12° WNW 19:50:13 12° WNW visible
28 Jan -3.3 17:24:21 10° W 17:27:39 52° NNW 17:30:58 10° ENE visible
28 Jan -2.2 19:01:46 10° WNW 19:04:09 29° NNW 19:04:09 29° NNW visible
29 Jan -2.7 18:13:34 10° WNW 18:16:40 33° N 18:18:04 23° NE visible
29 Jan -0.5 19:50:38 10° WNW 19:50:59 12° WNW 19:50:59 12° WNW visible
30 Jan -2.8 17:25:20 10° WNW 17:28:29 36° N 17:31:38 10° ENE visible
30 Jan -2.4 19:02:33 10° WNW 19:04:55 32° NNW 19:04:55 32° NNW visible
31 Jan -2.8 18:14:25 10° WNW 18:17:33 34° N 18:18:51 25° NE visible
31 Jan -0.6 19:51:15 10° WNW 19:51:47 14° WNW 19:51:47 14° WNW visible
